Regional Weather Roundup
Issued by NWS

Home | Current Version | Previous Version | Graphics & Text | Print | Product List | Glossary On
Versions: 1 2 3 4 5 6 7 8 9 10 11 12 13 14 15 16 17 18 19 20 21 22 23 24 25 26 27 28 29 30 31 32 33 34 35 36 37 38 39 40 41 42 43 44 45 46 47 48 49 50
769
ASUS45 KCYS 262110
RWRWY

WYOMING REGIONAL WEATHER ROUNDUP
NATIONAL WEATHER SERVICE CHEYENNE WY
300 PM MDT MON SEP 26 2016

NOTE:  "FAIR" INDICATES FEW OR NO CLOUDS BELOW 12,000 FEET
WITH NO SIGNIFICANT WEATHER AND/OR OBSTRUCTIONS TO VISIBILITY.

WYZ001-262200-
YELLOWSTONE NATIONAL PARK

CITY           SKY/WX    TMP DP  RH WIND       PRES   REMARKS
LK YELLOWSTONE   N/A     56  41  57 E5        30.52F
W YELLOWSTONE  NOT AVBL

$$
WYZ002>013-054>058-071-098>099-262200-
NORTHERN WYOMING

CITY           SKY/WX    TMP DP  RH WIND       PRES   REMARKS
JACKSON        SUNNY     64  37  36 CALM      30.43F
CODY           FAIR      68  45  42 SE5       30.34S
GREYBULL       FAIR      68  44  42 VRB6      30.30F
WORLAND        FAIR      70  43  37 NE7       30.31F
SHERIDAN       FAIR      72  47  40 N7        30.28F
BUFFALO        FAIR      69  41  36 E6        30.33F
GILLETTE       FAIR      67  45  45 NW17      30.29F
HULETT         FAIR      66  39  37 NW8G17    30.29F
NEWCASTLE      FAIR      68  37  32 NW13G24   30.29F

$$
WYZ014>020-022>026-101>103-262200-
CENTRAL WYOMING

CITY           SKY/WX    TMP DP  RH WIND       PRES   REMARKS
BIG PINEY      FAIR      68  36  30 VRB5      30.43F
PINEDALE       FAIR      66  34  30 CALM      30.44F
DUBOIS         FAIR      68  36  30 SE8       30.41F
LANDER         FAIR      68  42  38 NW5       30.36F
RIVERTON       FAIR      66  42  41 NE7       30.37F
CASPER         FAIR      70  40  33 VRB5      30.34F
DOUGLAS        FAIR      72  39  30 NW7G22    30.32F

$$
WYZ021-027>030-104>119-262200-
SOUTHERN WYOMING

CITY           SKY/WX    TMP DP  RH WIND       PRES   REMARKS
EVANSTON       FAIR      66  36  32 VRB7      30.44F
FORT BRIDGER   FAIR      70  36  28 NW7       30.46F
ROCK SPRINGS   FAIR      64  37  36 VRB6      30.43F
DIXON          FAIR      68  33  27 W3        30.45F
RAWLINS        FAIR      67  34  29 W13G20    30.42F
SARATOGA       FAIR      68  32  26 NW10G23   30.43F
LARAMIE        FAIR      66  34  30 NW6       30.41F
CHEYENNE       FAIR      72  33  24 NW17G25   30.35F
TORRINGTON     FAIR      74  36  25 NW13G20   30.27F
PINE BLUFFS    FAIR      72  32  23 N8G21     30.32F

$$




USA.gov is the U.S. government's official web portal to all federal, state and local government web resources and services.